STARLINK-31748, 59612

Orbit data source: Space-Track

STARLINK-31748, 59612 is a payload satellite owned by SpaceX/Seattle (US) in LEO that was launched on Sun, 28 Apr 2024 UTC via an FALCON 9 launch vehicle from the Air Force Eastern Test Range (AFETR). Payload-class satellites include a variety of spacecraft equipped with specific instruments for various scientific and technological missions. These include communications satellites like Starlink; space stations such as the ISS; scientific satellites like the Hubble; Earth observation satellites from companies like Planet Labs, Umbra, and HawkEye 360; GPS; miniature CubeSats for education and research; and military/defense satellites.

Loading next visibility...
Identifier
59612, 2024-080M
Orbit
LEO
Country
Flag of USUS
Related business
Manufacturer
SpaceX/Seattle
Mission
Operational Commercial Communications
Bus & Motor
STARLINK V2M, Unknown motor
Mass
730 kg wet, ~700 kg dry
Launch date (UTC)
2024-04-28 (2 years ago)
Launch vehicle
FALCON 9
Launch site
Air Force Eastern Test Range (AFETR)
Object type
Payload
Rocket body
Debris
Shape & HBR
Box + 2 Pan, 17.7 m
Radar Cross Section
33.884 m², Large (>1 m²)

Expand to show TLE details & history
Last TLE update: 2 days ago

TLE from 2 days ago
0 STARLINK-31748
1 59612U 24080M   26171.07481964  .00005846  00000-0  22190-3 0  9993
2 59612  43.0027 176.0187 0001634 279.9191  80.1476 15.27566713121400
Epoch: 2026-06-20T01:47Z
TLE epoch observation values (Epoch: 2026-06-20T01:47:44.416Z)
Latitude
-0.00005°
Longitude
-119.21108°
Altitude
482.673 km
Speed
7.626 km/s
True Right ascension
11h 44m 04s
True Declination
0° 00' 00"
Sunlit
Object was in daylight at epoch
Visualization orbit readout
Latitude
Unknown
Longitude
Unknown
Altitude
Unknown
Speed
Unknown
Apparent Right ascension
Unknown
Apparent Declination
Unknown
Sunlit
N/A
Visualization observer readout
Local Sidereal Time
21:42:05
Azimuth
Unknown
Elevation
Unknown
Doppler factor
Unknown
Orbital elements
Apogee altitude
486.155 km
Perigee altitude
483.912 km
Semi-major axis
6,863.171 km
Eccentricity
0.00016
Inclination
43.0027°
RAAN
176.0187°
Arg. of periapsis
279.9191°
True anomaly
80.16605°
Mean anomaly
80.1476°
Eccentric anomaly
80.15682°
Mean motion
3.8173 °/min
Orbital period
94.31 mins
BSTAR
0.0002219
Loading maneuver chart data...
Computing Atmospheric mass density...
Loading historical data...
Loading historical data...
Loading historical data...
Loading historical data...
Loading historical data...
Loading historical data...
Loading historical data...

Documentation

Showing up to 5 results
|